Overview Statistics Trail Chart Weather Telemetry Raw packets
 

This is the latest recevied weather packets stored in our database for station/object s59zo-6. If no packets are shown the sender has not sent any weather packets the latest 10 day(s).

<< 1 2 3 4 5 6 7 >>
Time Temp. Humidity Pressure Rain* Wind** Luminosity Snow
1788688504 25.56° C 42% 1024.4 hPa 0 mm - - -
1788688205 25.56° C 40% 1024.6 hPa 0 mm - - -
1788687903 25.56° C 41% 1024.7 hPa 0 mm - - -
1788687605 25.56° C 41% 1024.8 hPa 0 mm - - -
1788687304 25.56° C 41% 1025.1 hPa 0 mm - - -
1788687033 25.56° C 41% 1025.1 hPa 0 mm - - -
1788686704 25° C 42% 1025.1 hPa 0 mm - - -
1788686405 25° C 43% 1025 hPa 0 mm - - -
1788686104 25° C 44% 1025 hPa 0 mm - - -
1788685805 25° C 44% 1024.9 hPa 0 mm - - -
1788685504 24.44° C 45% 1025 hPa 0 mm - - -
1788685205 24.44° C 46% 1025 hPa 0 mm - - -
1788684904 24.44° C 50% 1025.2 hPa 0 mm - - -
1788684604 23.89° C 50% 1025.3 hPa 0 mm - - -
1788684304 23.89° C 51% 1025.1 hPa 0 mm - - -
1788684004 23.89° C 51% 1025.2 hPa 0 mm - - -
1788683704 23.89° C 51% 1025.3 hPa 0 mm - - -
1788683431 23.33° C 51% 1025.3 hPa 0 mm - - -
1788683104 23.33° C 52% 1025.4 hPa 0 mm - - -
1788682804 23.33° C 51% 1025.4 hPa 0 mm - - -
1788682504 22.78° C 53% 1025.4 hPa 0 mm - - -
1788682204 22.78° C 53% 1025.4 hPa 0 mm - - -
1788681904 22.22° C 59% 1025.3 hPa 0 mm - - -
1788681640 22.22° C 59% 1025.5 hPa 0 mm - - -
1788681304 22.22° C 60% 1025.3 hPa 0 mm - - -

* Rain latest hour (hover to see other rain measurements)
** Current wind speed in m/s (hover to see current wind gust speed)